SCP
-0 -0 0 -0 -0 -0 0 0 0 0 0 0 -0 -0 -0 0 0 0 0 0 -0 -0 -0 -0 -0 -0 -0 -0 -0 -0 -0 -0 -0 -0 -0 -0 -0 -0 -0 -0 -0 -0 -0 -0 -0 -0 -0 -0 -0
-0 -0 -0 -0 -0 0 -0 0 0 0 0 -0 -0 0 -0 0 0 0 -0 0 -0 -0 -0 -0 -0 -0 -0 -0 -0 -0 -0 -0 -0 -0 -0 -0 -0 -0 -0 -0 -0 -0 -0 -0 -0 -0 -0 -0 -0
0 0 0 -0 0 0 0 0 0 0 0 0 0 -0 0 0 0 -0 0 0 -0 -0 -0 -0 -0 -0 -0 -0 -0 -0 -0 -0 -0 -0 -0 -0 -0 -0 -0 -0 -0 -0 -0 -0 -0 -0 -0 -0 -0
0 -0 -0 -0 0 -0 0 0 0 0 -0 0 0 -0 -0 -0 -0 -0 -0 -0 -0 -0 -0 -0 -0 -0 -0 -0 -0 -0 -0 -0 -0 -0 -0 -0 -0 -0 -0 -0 -0 -0 -0 -0 -0 -0 -0 -0 -0
0 0 -0 -0 0 0 0 0 0 0 0 0 -0 0 0 -0 -0 -0 -0 -0 -0 -0 -0 -0 -0 -0 -0 -0 -0 -0 -0 -0 -0 -0 -0 -0 -0 -0 -0 -0 -0 -0 -0 -0 -0 -0 -0 -0 -0
0 0 0 0 0 0 0 0 0 0 0 0 -0 0 0 0 -0 -0 -0 -0 -0 -0 -0 -0 -0 -0 -0 -0 -0 -0 -0 -0 -0 -0 -0 -0 -0 -0 -0 -0 -0 -0 -0 -0 -0 -0 -0 -0 -0
0 0 0 0 0 0 0 0 0 0 0 0 -0 0 0 0 0 0 -0 -0 -0 -0 -0 0 0 -0 -0 -0 -0 -0 -0 -0 -0 -0 -0 -0 -0 -0 -0 -0 -0 -0 -0 -0 -0 -0 -0 -0 -0
0 0 0 0 0 0 0 0 0 0 0 0 0 0 0 0 0 0 0 0 0 0 0 0 0 0 0 0 0 -0 -0 0 -0 -0 -0 -0 -0 -0 -0 0 -0 -0 -0 -0 -0 -0 0 -0 0
0 0 0 0 0 0 0 0 0 0 0 0 0 0 0 0 0 0 0 0 0 0 0 0 0 0 0 0 0 0 -0 -0 -0 0 -0 -0 0 -0 -0 0 -0 0 -0 0 0 0 0 0 0
0 0 0 0 0 0 0 0 0 0 0 0 0 0 0 0 0 0 0 0 0 0 0 0 0 0 0 0 0 0 0 0 0 0 0 0 0 0 0 0 0 0 0 -0 0 0 0 0 0
0 0 0 0 0 0 0 0 0 0 0 0 0 0 0 0 0 0 0 0 0 0 0 0 0 0 0 0 0 0 0 0 0 0 0 0 0 0 0 0 0 0 0 0 0 0 0 -0 -0
0 0 0 0 0 0 0 0 0 0 0 0 0 0 0 0 0 0 0 0 0 0 0 0 0 0 0 0 0 0 0 0 0 0 0 0 0 0 0 0 0 0 0 0 0 0 0 0 0
0 0 0 0 0 0 0 0 0 0 0 0 0 0 0 0 0 0 0 0 0 0 0 0 0 0 0 0 0 0 0 0 0 0 0 0 0 0 0 0 0 0 0 0 0 0 0 0 0
0 0 0 0 0 0 0 0 0 0 0 0 0 0 0 0 0 0 0 0 0 0 0 0 0 0 0 0 0 0 0 0 0 0 0 0 0 0 0 0 0 0 0 0 0 0 0 0 0
0 0 0 0 0 0 0 0 0 0 0 0 0 0 0 0 0 0 0 0 0 0 0 0 0 0 0 0 0 0 0 0 0 0 0 0 0 0 0 0 0 0 0 0 0 0 0 0 0
0 0 0 0 0 0 0 0 0 0 0 0 0 0 0 0 0 0 0 0 0 0 0 0 0 0 0 0 0 0 0 0 0 0 0 0 0 0 0 0 0 0 0 0 0 0 0 0 0
0 0 0 0 0 0 0 0 0 0 0 0 0 0 0 0 0 0 0 0 0 0 0 0 0 0 0 0 0 0 0 0 0 0 0 0 0 0 0 0 0 0 0 0 0 0 0 0 0
0 0 0 0 0 0 0 0 0 0 0 0 0 0 0 0 0 0 0 0 0 0 0 0 0 0 0 0 0 0 0 0 0 0 0 0 0 0 0 0 0 0 0 0 0 0 0 0 0
0 0 0 0 0 0 0 0 0 0 0 0 0 0 0 0 0 0 0 0 0 0 0 0 0 0 0 0 0 0 0 0 0 0 0 0 0 0 0 0 0 0 0 0 0 0 0 0 0
0 0 0 0 0 0 0 0 0 0 0 0 0 0 0 0 0 0 0 0 0 0 0 0 0 0 0 0 0 0 0 0 0 0 0 0 0 0 0 0 0 0 0 0 0 0 0 0 0
0 0 0 0 0 0 0 0 0 0 0 0 0 0 0 0 0 0 0 0 0 0 0 0 0 0 0 0 0 0 0 0 0 0 0 0 0 0 0 0 0 0 0 0 0 0 0 0 0
0 0 0 0 0 0 0 -0 0 0 0 0 0 0 0 0 0 0 0 0 0 0 0 0 0 0 0 0 0 0 0 0 0 0 0 0 0 0 0 0 0 0 0 0 0 0 0 0 0
0 0 0 0 0 0 0 0 0 0 0 0 0 0 0 0 0 0 0 0 0 0 0 0 0 0 0 0 0 0 0 0 0 0 0 0 0 0 0 0 0 0 0 0 0 0 0 0 0
0 0 0 0 0 0 0 0 -0 0 0 0 0 0 0 0 0 0 0 0 0 0 0 0 0 0 0 0 0 0 0 0 0 0 0 0 0 0 0 0 0 0 0 0 0 0 0 0 0
0 0 0 0 0 0 0 0 0 0 0 0 0 0 0 0 0 0 0 0 0 0 0 0 0 0 0 0 0 0 0 0 0 0 0 0 0 0 0 0 0 0 0 0 0 0 0 0 0
0 0 0 0 0 0 0 0 0 0 0 0 0 0 0 0 0 0 0 0 0 0 0 0 0 0 0 0 0 0 0 0 0 0 0 0 0 0 0 0 0 0 0 0 0 0 0 0 0
0 0 0 0 0 0 0 0 0 0 0 0 0 0 0 0 0 0 0 0 0 0 0 0 0 0 0 0 0 0 0 0 0 0 0 0 0 0 0 0 0 0 0 0 0 0 0 0 0
0 0 0 0 0 0 0 0 0 0 0 0 0 0 0 0 0 0 0 0 0 0 0 0 0 0 0 0 0 0 0 0 0 0 0 0 0 0 0 0 0 0 0 0 0 0 0 0 0
0 0 0 0 0 0 0 0 0 0 0 0 0 0 0 0 0 0 0 0 0 0 0 0 0 0 0 0 0 0 0 0 0 0 0 0 0 0 0 0 0 0 0 0 0 0 0 0 0
0 0 0 0 0 0 0 0 0 0 0 0 0 0 0 0 0 0 0 0 0 0 0 0 0 0 0 0 0 0 0 0 0 0 0 0 0 0 0 0 0 0 0 0 0 0 0 0 0
Wind_Speed_500mb
4 7 8 5 8 10 5 2 8 8 8 9 24 44 24 17 8 10 14 12 12 13 23 25 24 23 22 22 21 20 19 16 14 12 15 12 14 15 17 19 22 23 21 20 19 17 17 17 18
11 9 6 3 9 7 6 7 17 9 16 21 40 37 33 11 27 25 12 22 17 16 16 25 21 20 21 22 22 19 16 13 12 13 11 8 13 15 17 20 24 25 21 16 16 17 17 15 15
10 6 5 8 6 6 7 8 15 17 11 5 11 23 11 7 16 12 13 31 21 17 15 24 20 16 18 18 18 17 15 11 10 11 12 8 16 15 16 21 25 27 24 16 17 18 17 16 15
8 4 2 9 8 14 11 11 33 18 7 10 27 20 18 11 6 18 24 23 25 20 21 18 23 19 15 15 18 17 14 12 9 9 9 7 12 17 19 23 26 29 26 22 20 19 18 17 15
10 3 7 6 5 11 8 12 19 10 15 9 22 10 15 21 24 23 23 14 31 26 24 21 22 23 20 15 16 16 13 11 10 12 10 9 10 14 18 22 24 25 24 21 20 21 20 19 17
6 4 9 5 2 7 9 12 2 11 22 18 25 15 11 19 25 20 25 19 32 28 24 22 20 28 26 20 16 16 15 13 10 9 10 7 5 8 15 19 21 21 19 20 20 19 19 18 17
6 7 5 0 8 6 10 17 2 11 20 9 14 10 16 24 26 23 26 26 28 31 25 20 27 25 23 18 15 16 15 14 13 11 11 9 5 3 8 14 18 20 18 16 19 20 19 16 14
5 9 5 6 5 3 13 17 9 15 4 10 13 12 13 28 28 23 19 21 20 28 33 27 28 36 33 27 19 15 16 16 15 14 12 10 10 5 6 12 19 18 16 14 14 15 18 16 14
5 8 4 9 7 7 13 5 7 13 16 8 11 17 22 27 26 21 17 20 22 25 26 30 28 30 37 29 22 20 17 15 15 15 14 12 12 5 6 11 18 25 29 15 15 17 17 18 17
9 7 3 1 6 4 11 11 13 8 16 9 18 22 23 24 28 24 21 23 21 25 27 27 27 24 39 38 25 23 26 24 17 17 16 15 18 11 9 2 5 11 18 25 28 24 27 23 22
4 6 2 9 9 12 4 7 9 8 5 12 23 27 23 24 28 30 30 26 22 25 26 28 28 27 27 43 37 27 25 29 27 24 19 20 20 17 15 9 4 3 6 10 21 26 30 33 26
4 8 3 2 4 3 3 4 5 14 11 18 25 24 24 24 24 27 28 28 27 28 26 24 26 30 32 35 46 32 29 32 29 27 25 25 23 23 17 15 7 2 2 4 9 12 14 28 26
6 6 2 6 8 9 8 9 8 12 23 24 27 26 26 24 24 26 25 23 21 20 20 21 22 24 29 36 43 47 43 34 32 28 26 24 23 22 20 15 8 6 6 2 8 9 11 10 11
2 6 13 11 19 12 8 10 5 13 35 30 28 29 29 28 27 29 27 25 24 23 23 24 26 27 30 40 40 41 39 36 29 28 25 26 25 23 21 17 15 11 7 9 6 5 11 8 9
5 7 11 26 24 9 15 14 20 31 37 35 30 31 32 31 33 33 30 30 27 27 28 29 29 29 32 39 42 42 36 30 29 27 26 25 24 27 23 17 14 14 11 7 8 4 10 8 9
3 1 4 7 26 12 15 19 13 35 48 40 36 37 35 34 34 34 33 32 30 30 29 28 29 33 37 38 43 43 40 35 28 24 20 21 21 21 20 19 15 14 8 1 6 5 7 6 10
5 8 12 12 19 10 10 15 3 35 37 37 40 42 42 40 41 40 37 34 31 31 29 27 27 33 39 44 47 47 46 39 31 25 26 24 22 19 19 19 15 11 7 7 7 6 10 12 9
12 10 11 11 10 5 12 22 11 35 39 46 47 49 51 50 49 43 38 33 31 29 27 26 27 37 43 45 50 47 44 40 34 30 27 22 22 20 17 15 14 13 10 9 8 6 2 10 15
7 8 11 10 8 12 18 21 21 47 49 48 55 63 66 62 51 45 40 33 31 28 26 27 36 43 47 49 51 55 50 41 37 36 31 29 25 21 19 17 15 13 11 9 9 9 10 14 17
17 16 23 14 12 13 16 28 19 20 36 64 76 81 77 66 60 54 44 38 34 31 31 36 41 46 52 54 54 50 46 43 41 40 35 29 26 25 21 19 20 19 15 14 11 11 11 14 14
13 17 12 18 2 8 9 19 16 21 56 54 79 78 82 85 72 58 47 44 41 39 42 46 52 58 56 56 53 52 47 47 45 41 38 36 31 30 26 24 20 17 14 12 12 14 14 19 19
19 13 13 13 4 13 9 19 13 12 20 21 66 74 77 84 70 58 52 51 49 48 49 54 54 52 50 51 51 48 47 51 46 46 44 42 36 31 26 20 16 13 12 12 13 17 19 17 20
13 3 9 6 7 6 8 13 11 19 26 41 40 64 81 86 78 65 58 56 56 57 59 58 58 56 53 51 49 50 54 52 54 51 47 43 37 28 23 18 14 12 11 13 16 18 21 24 24
15 10 12 9 5 11 17 18 15 22 33 24 16 57 75 80 73 62 57 61 64 63 64 63 61 58 53 53 55 54 55 63 60 54 46 41 34 27 21 17 14 11 12 13 16 21 23 25 25
10 13 3 5 1 17 11 20 41 12 10 17 22 56 72 76 74 69 69 72 73 72 70 67 64 61 60 59 56 56 60 57 53 49 42 37 31 26 21 16 12 10 10 12 15 17 20 20 21
16 19 12 14 9 9 7 17 13 18 27 36 32 55 79 82 81 78 74 74 76 77 75 73 70 69 65 60 58 58 57 54 48 41 34 30 27 25 20 15 9 7 8 11 15 18 20 19 17
10 19 12 4 4 4 11 17 19 10 19 9 23 51 71 85 87 82 74 74 77 80 78 75 74 72 68 66 65 64 60 55 47 39 34 31 29 24 19 14 8 3 2 6 12 15 16 15 16
12 11 6 2 5 12 10 15 24 12 21 16 16 39 55 70 82 80 76 77 79 80 79 78 75 73 72 69 66 64 60 52 44 39 35 31 27 23 19 16 11 7 1 5 9 12 13 15 18
7 9 8 9 9 9 6 18 12 16 18 18 24 54 68 78 83 82 80 80 81 81 82 80 78 77 75 73 69 64 60 54 46 39 35 32 28 24 21 17 13 7 2 5 8 10 12 15 18
4 20 18 13 12 11 5 36 3 1 10 23 34 55 64 73 79 80 81 86 86 86 85 83 82 80 76 73 68 64 61 56 49 43 38 34 30 28 25 20 15 9 5 5 7 11 12 14 19
Wind_Direction_500mb
105 130 130 54 52 64 109 343 114 85 46 69 77 91 99 69 80 146 152 207 190 168 171 168 157 153 152 150 145 141 133 119 109 102 111 100 70 50 36 35 35 34 38 45 51 55 61 72 83
100 114 85 39 83 72 294 111 92 103 128 116 108 95 68 64 88 123 166 144 172 166 176 175 165 163 155 156 155 150 140 123 118 120 122 84 51 38 45 36 29 23 23 36 45 46 47 55 69
84 55 46 95 89 135 148 140 138 116 137 163 116 91 72 18 82 115 105 142 149 168 169 170 156 155 161 160 160 157 148 135 129 126 129 68 49 48 43 36 33 31 39 54 50 45 41 44 61
44 36 40 78 136 348 108 162 126 125 102 85 114 76 85 20 111 128 118 135 162 156 145 167 163 163 174 170 170 173 166 154 148 142 131 92 53 45 48 42 36 35 42 49 47 44 44 47 59
37 16 49 89 135 143 98 108 129 147 146 112 114 127 95 97 104 116 127 141 154 155 162 174 175 178 183 199 178 181 174 169 161 153 147 136 70 64 54 43 38 37 40 44 43 40 44 52 65
29 42 52 4 112 105 93 115 119 132 134 101 110 107 128 148 147 129 142 136 160 164 173 189 197 179 200 199 187 187 187 181 173 164 159 161 105 60 43 36 34 31 33 39 44 47 50 55 69
87 75 196 114 165 141 164 148 50 158 122 92 121 85 142 169 149 161 160 167 169 181 172 171 190 193 205 205 202 197 189 184 188 184 187 190 196 89 43 28 29 28 28 34 41 45 50 55 66
49 92 327 303 144 88 168 129 123 91 101 123 120 149 169 162 160 178 180 185 192 187 194 180 178 202 204 200 200 205 203 194 196 198 207 212 214 193 59 37 26 25 30 32 46 49 52 52 50
42 60 351 313 24 146 156 98 105 107 132 103 98 147 155 160 173 183 192 193 195 194 194 198 195 193 205 205 205 189 206 215 211 214 219 217 215 182 123 56 36 15 19 25 45 39 41 41 42
68 93 265 80 342 128 171 127 166 146 142 107 116 135 153 165 173 192 202 210 207 202 203 206 210 210 202 195 194 204 208 221 229 231 231 220 208 205 201 35 72 57 37 23 22 41 37 34 38
56 160 304 14 31 50 128 120 145 156 165 192 194 175 177 179 187 200 207 218 224 223 213 210 214 213 199 202 192 198 207 217 216 216 213 203 210 209 212 217 206 167 86 61 23 23 13 15 31
53 255 123 290 328 327 107 147 165 211 208 177 182 180 188 190 199 206 209 215 221 224 226 225 226 222 212 201 198 195 199 207 203 201 202 203 202 209 216 191 243 219 58 52 31 29 33 15 23
143 317 241 246 257 255 266 240 215 223 203 193 190 195 205 210 204 200 205 208 214 221 227 230 230 225 217 205 198 199 205 206 200 192 195 187 194 199 199 208 220 244 298 351 1 340 3 357 15
188 301 284 252 234 227 216 253 228 238 206 208 210 209 211 215 213 209 212 219 227 235 239 240 238 228 214 200 194 195 207 213 209 205 201 202 197 205 213 219 239 255 268 292 261 301 333 325 340
319 321 305 245 217 218 206 287 231 235 201 208 215 222 220 219 215 220 223 230 236 242 246 245 239 226 213 199 189 194 193 195 204 201 189 190 190 192 208 198 239 235 240 225 276 310 329 285 289
316 66 301 276 168 191 143 270 287 221 198 207 216 221 226 218 218 221 229 239 247 254 255 250 235 216 202 194 187 193 192 194 185 185 191 182 183 181 186 186 230 190 196 200 231 214 259 294 303
329 247 225 303 170 132 163 259 238 181 201 212 216 218 220 218 222 228 233 241 248 253 254 246 218 194 189 181 185 188 189 183 183 181 181 176 178 178 188 198 198 185 178 198 214 248 287 309 331
211 227 256 235 230 186 192 252 232 205 214 225 222 220 219 224 229 233 236 240 240 238 234 223 185 173 178 180 184 184 188 183 180 189 176 169 168 169 172 173 172 175 185 220 254 278 357 67 68
217 222 241 258 233 160 226 240 236 224 224 229 226 222 220 225 226 230 234 235 229 224 213 184 169 170 176 180 186 181 176 178 181 178 167 167 170 172 170 170 167 166 167 142 119 92 79 68 80
238 249 264 297 197 179 253 251 250 217 224 225 225 226 221 211 218 221 226 223 214 211 188 174 173 175 179 184 185 186 186 177 180 174 171 173 171 160 158 151 143 132 126 119 103 78 54 53 54
217 213 234 231 198 263 309 270 235 244 235 236 235 235 225 214 212 215 218 213 202 195 183 180 177 179 179 179 181 180 180 178 173 172 169 158 158 150 143 137 129 121 110 96 76 56 38 40 38
232 215 219 242 262 255 148 284 226 230 251 223 235 221 219 211 212 217 215 206 197 188 185 185 185 184 184 186 186 188 191 182 173 165 158 152 149 147 143 139 134 124 99 80 63 54 44 40 36
223 136 182 212 224 331 276 299 261 214 247 249 235 221 212 209 208 207 212 206 195 191 189 187 187 187 188 187 188 190 186 178 165 159 157 153 149 144 141 134 122 109 96 70 52 39 27 22 20
144 76 41 42 60 266 192 210 244 227 236 249 218 211 202 200 201 206 208 203 194 192 192 191 190 190 189 190 190 191 188 173 167 164 162 157 152 148 145 141 128 108 80 62 41 27 19 17 13
133 111 292 319 299 249 205 219 251 286 208 229 212 201 196 196 200 202 201 198 194 193 193 192 191 191 194 192 189 184 181 177 173 167 165 158 156 154 149 140 126 105 71 43 29 20 15 12 7
191 168 166 217 213 281 355 243 254 230 250 262 254 220 202 198 201 201 204 200 196 196 195 195 196 198 194 187 182 180 181 176 172 168 164 166 167 161 158 153 138 99 56 30 16 6 2 -0 359
197 211 176 22 114 8 221 277 283 239 259 261 201 187 188 195 199 201 202 201 198 197 197 196 195 193 188 184 183 181 182 182 179 173 175 177 173 171 165 164 161 134 57 16 5 357 355 356 358
154 163 119 95 205 241 270 265 242 236 251 231 209 183 186 191 199 200 202 201 199 196 193 191 191 189 187 187 186 186 185 183 183 184 183 180 178 177 181 187 188 187 162 3 357 360 356 352 347
145 197 198 144 166 194 281 259 211 231 244 214 203 194 191 195 201 203 203 202 198 195 193 190 190 191 190 189 189 189 187 187 189 189 187 187 188 189 193 196 193 194 236 341 353 351 345 339 336
305 196 177 184 214 233 151 266 175 139 273 218 207 198 200 204 204 206 205 202 198 196 195 194 194 194 194 192 192 192 193 193 193 192 193 195 196 199 204 200 201 212 241 312 325 327 327 325 330
Wind_Speed_850mb
4 7 8 5 8 10 5 2 8 8 8 9 24 44 24 17 8 10 14 12 12 13 23 25 24 23 22 22 21 20 19 16 14 12 15 12 14 15 17 19 22 23 21 20 19 17 17 17 18
11 9 6 3 9 7 6 7 17 9 16 21 40 37 33 11 27 25 12 22 17 16 16 25 21 20 21 22 22 19 16 13 12 13 11 8 13 15 17 20 24 25 21 16 16 17 17 15 15
10 6 5 8 6 6 7 8 15 17 11 5 11 23 11 7 16 12 13 31 21 17 15 24 20 16 18 18 18 17 15 11 10 11 12 8 16 15 16 21 25 27 24 16 17 18 17 16 15
8 4 2 9 8 14 11 11 33 18 7 10 27 20 18 11 6 18 24 23 25 20 21 18 23 19 15 15 18 17 14 12 9 9 9 7 12 17 19 23 26 29 26 22 20 19 18 17 15
10 3 7 6 5 11 8 12 19 10 15 9 22 10 15 21 24 23 23 14 31 26 24 21 22 23 20 15 16 16 13 11 10 12 10 9 10 14 18 22 24 25 24 21 20 21 20 19 17
6 4 9 5 2 7 9 12 2 11 22 18 25 15 11 19 25 20 25 19 32 28 24 22 20 28 26 20 16 16 15 13 10 9 10 7 5 8 15 19 21 21 19 20 20 19 19 18 17
6 7 5 0 8 6 10 17 2 11 20 9 14 10 16 24 26 23 26 26 28 31 25 20 27 25 23 18 15 16 15 14 13 11 11 9 5 3 8 14 18 20 18 16 19 20 19 16 14
5 9 5 6 5 3 13 17 9 15 4 10 13 12 13 28 28 23 19 21 20 28 33 27 28 36 33 27 19 15 16 16 15 14 12 10 10 5 6 12 19 18 16 14 14 15 18 16 14
5 8 4 9 7 7 13 5 7 13 16 8 11 17 22 27 26 21 17 20 22 25 26 30 28 30 37 29 22 20 17 15 15 15 14 12 12 5 6 11 18 25 29 15 15 17 17 18 17
9 7 3 1 6 4 11 11 13 8 16 9 18 22 23 24 28 24 21 23 21 25 27 27 27 24 39 38 25 23 26 24 17 17 16 15 18 11 9 2 5 11 18 25 28 24 27 23 22
4 6 2 9 9 12 4 7 9 8 5 12 23 27 23 24 28 30 30 26 22 25 26 28 28 27 27 43 37 27 25 29 27 24 19 20 20 17 15 9 4 3 6 10 21 26 30 33 26
4 8 3 2 4 3 3 4 5 14 11 18 25 24 24 24 24 27 28 28 27 28 26 24 26 30 32 35 46 32 29 32 29 27 25 25 23 23 17 15 7 2 2 4 9 12 14 28 26
6 6 2 6 8 9 8 9 8 12 23 24 27 26 26 24 24 26 25 23 21 20 20 21 22 24 29 36 43 47 43 34 32 28 26 24 23 22 20 15 8 6 6 2 8 9 11 10 11
2 6 13 11 19 12 8 10 5 13 35 30 28 29 29 28 27 29 27 25 24 23 23 24 26 27 30 40 40 41 39 36 29 28 25 26 25 23 21 17 15 11 7 9 6 5 11 8 9
5 7 11 26 24 9 15 14 20 31 37 35 30 31 32 31 33 33 30 30 27 27 28 29 29 29 32 39 42 42 36 30 29 27 26 25 24 27 23 17 14 14 11 7 8 4 10 8 9
3 1 4 7 26 12 15 19 13 35 48 40 36 37 35 34 34 34 33 32 30 30 29 28 29 33 37 38 43 43 40 35 28 24 20 21 21 21 20 19 15 14 8 1 6 5 7 6 10
5 8 12 12 19 10 10 15 3 35 37 37 40 42 42 40 41 40 37 34 31 31 29 27 27 33 39 44 47 47 46 39 31 25 26 24 22 19 19 19 15 11 7 7 7 6 10 12 9
12 10 11 11 10 5 12 22 11 35 39 46 47 49 51 50 49 43 38 33 31 29 27 26 27 37 43 45 50 47 44 40 34 30 27 22 22 20 17 15 14 13 10 9 8 6 2 10 15
7 8 11 10 8 12 18 21 21 47 49 48 55 63 66 62 51 45 40 33 31 28 26 27 36 43 47 49 51 55 50 41 37 36 31 29 25 21 19 17 15 13 11 9 9 9 10 14 17
17 16 23 14 12 13 16 28 19 20 36 64 76 81 77 66 60 54 44 38 34 31 31 36 41 46 52 54 54 50 46 43 41 40 35 29 26 25 21 19 20 19 15 14 11 11 11 14 14
13 17 12 18 2 8 9 19 16 21 56 54 79 78 82 85 72 58 47 44 41 39 42 46 52 58 56 56 53 52 47 47 45 41 38 36 31 30 26 24 20 17 14 12 12 14 14 19 19
19 13 13 13 4 13 9 19 13 12 20 21 66 74 77 84 70 58 52 51 49 48 49 54 54 52 50 51 51 48 47 51 46 46 44 42 36 31 26 20 16 13 12 12 13 17 19 17 20
13 3 9 6 7 6 8 13 11 19 26 41 40 64 81 86 78 65 58 56 56 57 59 58 58 56 53 51 49 50 54 52 54 51 47 43 37 28 23 18 14 12 11 13 16 18 21 24 24
15 10 12 9 5 11 17 18 15 22 33 24 16 57 75 80 73 62 57 61 64 63 64 63 61 58 53 53 55 54 55 63 60 54 46 41 34 27 21 17 14 11 12 13 16 21 23 25 25
10 13 3 5 1 17 11 20 41 12 10 17 22 56 72 76 74 69 69 72 73 72 70 67 64 61 60 59 56 56 60 57 53 49 42 37 31 26 21 16 12 10 10 12 15 17 20 20 21
16 19 12 14 9 9 7 17 13 18 27 36 32 55 79 82 81 78 74 74 76 77 75 73 70 69 65 60 58 58 57 54 48 41 34 30 27 25 20 15 9 7 8 11 15 18 20 19 17
10 19 12 4 4 4 11 17 19 10 19 9 23 51 71 85 87 82 74 74 77 80 78 75 74 72 68 66 65 64 60 55 47 39 34 31 29 24 19 14 8 3 2 6 12 15 16 15 16
12 11 6 2 5 12 10 15 24 12 21 16 16 39 55 70 82 80 76 77 79 80 79 78 75 73 72 69 66 64 60 52 44 39 35 31 27 23 19 16 11 7 1 5 9 12 13 15 18
7 9 8 9 9 9 6 18 12 16 18 18 24 54 68 78 83 82 80 80 81 81 82 80 78 77 75 73 69 64 60 54 46 39 35 32 28 24 21 17 13 7 2 5 8 10 12 15 18
4 20 18 13 12 11 5 36 3 1 10 23 34 55 64 73 79 80 81 86 86 86 85 83 82 80 76 73 68 64 61 56 49 43 38 34 30 28 25 20 15 9 5 5 7 11 12 14 19
Wind_Direction_850mb
105 130 130 54 52 64 109 343 114 85 46 69 77 91 99 69 80 146 152 207 190 168 171 168 157 153 152 150 145 141 133 119 109 102 111 100 70 50 36 35 35 34 38 45 51 55 61 72 83
100 114 85 39 83 72 294 111 92 103 128 116 108 95 68 64 88 123 166 144 172 166 176 175 165 163 155 156 155 150 140 123 118 120 122 84 51 38 45 36 29 23 23 36 45 46 47 55 69
84 55 46 95 89 135 148 140 138 116 137 163 116 91 72 18 82 115 105 142 149 168 169 170 156 155 161 160 160 157 148 135 129 126 129 68 49 48 43 36 33 31 39 54 50 45 41 44 61
44 36 40 78 136 348 108 162 126 125 102 85 114 76 85 20 111 128 118 135 162 156 145 167 163 163 174 170 170 173 166 154 148 142 131 92 53 45 48 42 36 35 42 49 47 44 44 47 59
37 16 49 89 135 143 98 108 129 147 146 112 114 127 95 97 104 116 127 141 154 155 162 174 175 178 183 199 178 181 174 169 161 153 147 136 70 64 54 43 38 37 40 44 43 40 44 52 65
29 42 52 4 112 105 93 115 119 132 134 101 110 107 128 148 147 129 142 136 160 164 173 189 197 179 200 199 187 187 187 181 173 164 159 161 105 60 43 36 34 31 33 39 44 47 50 55 69
87 75 196 114 165 141 164 148 50 158 122 92 121 85 142 169 149 161 160 167 169 181 172 171 190 193 205 205 202 197 189 184 188 184 187 190 196 89 43 28 29 28 28 34 41 45 50 55 66
49 92 327 303 144 88 168 129 123 91 101 123 120 149 169 162 160 178 180 185 192 187 194 180 178 202 204 200 200 205 203 194 196 198 207 212 214 193 59 37 26 25 30 32 46 49 52 52 50
42 60 351 313 24 146 156 98 105 107 132 103 98 147 155 160 173 183 192 193 195 194 194 198 195 193 205 205 205 189 206 215 211 214 219 217 215 182 123 56 36 15 19 25 45 39 41 41 42
68 93 265 80 342 128 171 127 166 146 142 107 116 135 153 165 173 192 202 210 207 202 203 206 210 210 202 195 194 204 208 221 229 231 231 220 208 205 201 35 72 57 37 23 22 41 37 34 38
56 160 304 14 31 50 128 120 145 156 165 192 194 175 177 179 187 200 207 218 224 223 213 210 214 213 199 202 192 198 207 217 216 216 213 203 210 209 212 217 206 167 86 61 23 23 13 15 31
53 255 123 290 328 327 107 147 165 211 208 177 182 180 188 190 199 206 209 215 221 224 226 225 226 222 212 201 198 195 199 207 203 201 202 203 202 209 216 191 243 219 58 52 31 29 33 15 23
143 317 241 246 257 255 266 240 215 223 203 193 190 195 205 210 204 200 205 208 214 221 227 230 230 225 217 205 198 199 205 206 200 192 195 187 194 199 199 208 220 244 298 351 1 340 3 357 15
188 301 284 252 234 227 216 253 228 238 206 208 210 209 211 215 213 209 212 219 227 235 239 240 238 228 214 200 194 195 207 213 209 205 201 202 197 205 213 219 239 255 268 292 261 301 333 325 340
319 321 305 245 217 218 206 287 231 235 201 208 215 222 220 219 215 220 223 230 236 242 246 245 239 226 213 199 189 194 193 195 204 201 189 190 190 192 208 198 239 235 240 225 276 310 329 285 289
316 66 301 276 168 191 143 270 287 221 198 207 216 221 226 218 218 221 229 239 247 254 255 250 235 216 202 194 187 193 192 194 185 185 191 182 183 181 186 186 230 190 196 200 231 214 259 294 303
329 247 225 303 170 132 163 259 238 181 201 212 216 218 220 218 222 228 233 241 248 253 254 246 218 194 189 181 185 188 189 183 183 181 181 176 178 178 188 198 198 185 178 198 214 248 287 309 331
211 227 256 235 230 186 192 252 232 205 214 225 222 220 219 224 229 233 236 240 240 238 234 223 185 173 178 180 184 184 188 183 180 189 176 169 168 169 172 173 172 175 185 220 254 278 357 67 68
217 222 241 258 233 160 226 240 236 224 224 229 226 222 220 225 226 230 234 235 229 224 213 184 169 170 176 180 186 181 176 178 181 178 167 167 170 172 170 170 167 166 167 142 119 92 79 68 80
238 249 264 297 197 179 253 251 250 217 224 225 225 226 221 211 218 221 226 223 214 211 188 174 173 175 179 184 185 186 186 177 180 174 171 173 171 160 158 151 143 132 126 119 103 78 54 53 54
217 213 234 231 198 263 309 270 235 244 235 236 235 235 225 214 212 215 218 213 202 195 183 180 177 179 179 179 181 180 180 178 173 172 169 158 158 150 143 137 129 121 110 96 76 56 38 40 38
232 215 219 242 262 255 148 284 226 230 251 223 235 221 219 211 212 217 215 206 197 188 185 185 185 184 184 186 186 188 191 182 173 165 158 152 149 147 143 139 134 124 99 80 63 54 44 40 36
223 136 182 212 224 331 276 299 261 214 247 249 235 221 212 209 208 207 212 206 195 191 189 187 187 187 188 187 188 190 186 178 165 159 157 153 149 144 141 134 122 109 96 70 52 39 27 22 20
144 76 41 42 60 266 192 210 244 227 236 249 218 211 202 200 201 206 208 203 194 192 192 191 190 190 189 190 190 191 188 173 167 164 162 157 152 148 145 141 128 108 80 62 41 27 19 17 13
133 111 292 319 299 249 205 219 251 286 208 229 212 201 196 196 200 202 201 198 194 193 193 192 191 191 194 192 189 184 181 177 173 167 165 158 156 154 149 140 126 105 71 43 29 20 15 12 7
191 168 166 217 213 281 355 243 254 230 250 262 254 220 202 198 201 201 204 200 196 196 195 195 196 198 194 187 182 180 181 176 172 168 164 166 167 161 158 153 138 99 56 30 16 6 2 -0 359
197 211 176 22 114 8 221 277 283 239 259 261 201 187 188 195 199 201 202 201 198 197 197 196 195 193 188 184 183 181 182 182 179 173 175 177 173 171 165 164 161 134 57 16 5 357 355 356 358
154 163 119 95 205 241 270 265 242 236 251 231 209 183 186 191 199 200 202 201 199 196 193 191 191 189 187 187 186 186 185 183 183 184 183 180 178 177 181 187 188 187 162 3 357 360 356 352 347
145 197 198 144 166 194 281 259 211 231 244 214 203 194 191 195 201 203 203 202 198 195 193 190 190 191 190 189 189 189 187 187 189 189 187 187 188 189 193 196 193 194 236 341 353 351 345 339 336
305 196 177 184 214 233 151 266 175 139 273 218 207 198 200 204 204 206 205 202 198 196 195 194 194 194 194 192 192 192 193 193 193 192 193 195 196 199 204 200 201 212 241 312 325 327 327 325 330